TimeCDT,TemperatureF,Dew PointF,Humidity,Sea Level PressureIn,VisibilityMPH,Wind Direction,Wind SpeedMPH,Gust SpeedMPH,PrecipitationIn,Events,Conditions,WindDirDegrees,DateUTC
12:53 AM,75.0,66.0,73,29.82,10.0,Calm,Calm,-,N/A,,Clear,0,2013-07-23 05:53:00
1:53 AM,75.0,66.0,73,29.81,10.0,East,3.5,-,N/A,,Clear,100,2013-07-23 06:53:00
2:53 AM,73.9,66.0,76,29.81,10.0,Variable,3.5,-,N/A,,Clear,0,2013-07-23 07:53:00
3:53 AM,73.0,64.9,76,29.80,10.0,ESE,3.5,-,N/A,,Clear,120,2013-07-23 08:53:00
4:53 AM,73.0,66.0,79,29.80,10.0,North,3.5,-,N/A,,Clear,350,2013-07-23 09:53:00
5:53 AM,70.0,64.9,84,29.82,10.0,South,8.1,-,N/A,,Clear,170,2013-07-23 10:53:00
6:53 AM,73.9,66.0,76,29.83,10.0,ESE,5.8,-,N/A,,Clear,110,2013-07-23 11:53:00
7:53 AM,73.9,66.0,76,29.93,10.0,North,21.9,-,N/A,,Partly Cloudy,10,2013-07-23 12:53:00
8:53 AM,71.1,63.0,75,29.88,10.0,ENE,12.7,21.9,0.00,Rain,Light Rain,70,2013-07-23 13:53:00
9:42 AM,73.4,64.4,73,29.87,10.0,NNE,8.1,20.7,0.01,,Clear,30,2013-07-23 14:42:00
9:53 AM,75.9,64.9,69,29.86,10.0,NNW,6.9,-,0.01,,Clear,340,2013-07-23 14:53:00
10:53 AM,79.0,64.0,60,29.91,10.0,ENE,20.7,31.1,N/A,,Clear,60,2013-07-23 15:53:00
11:53 AM,81.0,64.9,58,29.88,10.0,East,17.3,26.5,N/A,,Clear,90,2013-07-23 16:53:00
12:53 PM,84.0,64.9,53,29.88,10.0,East,16.1,23.0,N/A,,Clear,90,2013-07-23 17:53:00
1:53 PM,88.0,64.9,46,29.86,10.0,East,11.5,-,N/A,,Clear,90,2013-07-23 18:53:00
2:53 PM,91.0,66.0,44,29.85,10.0,East,6.9,-,N/A,,Clear,80,2013-07-23 19:53:00
3:53 PM,93.0,63.0,37,29.84,10.0,East,10.4,-,N/A,,Clear,100,2013-07-23 20:53:00
4:53 PM,93.0,64.0,38,29.83,10.0,ENE,8.1,-,N/A,,Clear,70,2013-07-23 21:53:00
5:53 PM,86.0,64.9,49,29.81,10.0,ENE,13.8,-,N/A,,Clear,60,2013-07-23 22:53:00
6:53 PM,80.1,66.0,62,29.83,8.0,NNE,8.1,-,0.03,Rain,Light Rain,30,2013-07-23 23:53:00
7:53 PM,80.1,66.0,62,29.86,10.0,NE,6.9,-,0.00,,Partly Cloudy,40,2013-07-24 00:53:00
8:53 PM,79.0,68.0,69,29.86,10.0,NE,5.8,-,N/A,,Scattered Clouds,50,2013-07-24 01:53:00
9:53 PM,79.0,66.9,66,29.87,10.0,NE,12.7,-,0.00,,Partly Cloudy,40,2013-07-24 02:53:00
10:53 PM,75.9,66.0,71,29.92,10.0,NE,8.1,-,N/A,,Mostly Cloudy,40,2013-07-24 03:53:00
11:53 PM,73.9,66.0,76,29.92,10.0,NNE,11.5,-,N/A,,Clear,30,2013-07-24 04:53:00